Location: Arcizac
(43.0933°N, 0.0112°E)
Time: 18:49:14
(UTC+00:00)

Cosmos 1975 - Pass Details

Date: 14 December 2019
Orbit: 543 x 561 km, 82.5° (Epoch: 27 January)

Event Time Altitude Azimuth Distance (km) Brightness Sun altitude
Rises 17:22:05 0° 3° (N) 2,720 6.1 -10.1°
Reaches altitude 10° 17:24:33 10° 17° (NNE) 1,824 5.1 -10.5°
Maximum altitude 17:27:54 25° 74° (ENE) 1,127 3.8 -11.0°
Drops below altitude 10° 17:31:15 10° 131° (SE) 1,820 5.2 -11.6°
Sets 17:33:42 0° 145° (SE) 2,711 6.2 -12.0°
